Track COSMOS 2376 (GLONASS) now! COSMOS 2376 (GLONASS) is classified as:
1 26565U 00063B 18109.38428080 -.00000014 +00000-0 +00000-0 0 9991 2 26565 065.3475 054.5082 0003666 026.1104 269.5773 02.13103005136290